Flag for Iceland Weather past 2 weeks in Reykjavik, Iceland

Now
34 °F

Cloudy.


Feels Like: 22 °F
Forecast: N/A
Wind: 20 mph from North

Location: Reykjavik Airport

Current Time: Apr 27, 2015 at 3:51:14 PM

Latest Report: Apr 27, 2015 at 3:00 PM


Visibility: N/A

Pressure: 29.89 "Hg

Humidity: 65%

Dew point: 23 °F

Location of ReykjavikLocation

Historic Weather in Reykjavik — Graph

°F

Reykjavik temperature yesterday

Maximum temperature yesterday: 30 °F (at 2:00 PM)
Minimum temperature yesterday: 23 °F (at 5:00 AM)
Average temperature yesterday: 27 °F

Past Weeks' High & Low Weather Summary

 TemperatureHumidityPressure
High48 °F (Apr 19, 1:00 PM)93% (Apr 12, 5:00 PM)30.33 "Hg (Apr 12, 5:00 PM)
Low21 °F (Apr 25, 3:00 AM)27% (Apr 25, 5:00 PM)28.85 "Hg (Apr 13, 4:00 PM)
Average38 °F71%29.90 "Hg
* Reported Apr 12 3:00 PM — Apr 27 3:00 PM, Reykjavik, Weather by CustomWeather, © 2015

Note: Actual official high and low records may vary slightly from our data, if they occured in-between our weather recording intervals... More about our weather records

Advertising

Reykjavik weather history for previous 24 hours

 ConditionsComfort  
Time TempWeatherWind HumidityBarometerVisibility
3:00 PM
Mon, Apr 27
34 °FCloudy.20 mph65%29.89 "HgN/A
2:00 PM34 °FMostly cloudy.13 mph60%29.92 "HgN/A
1:00 PM32 °FMostly cloudy.20 mph64%29.92 "HgN/A
12:00 PM32 °FPartly sunny.25 mph60%29.92 "HgN/A
11:00 AM30 °FMostly cloudy.22 mph69%29.92 "HgN/A
10:00 AM30 °FSnow flurries. Mostly cloudy.25 mph69%29.95 "HgN/A
9:00 AM30 °FMostly cloudy.18 mph64%29.95 "HgN/A
8:00 AM28 °FMostly cloudy.13 mph64%29.98 "HgN/A
7:00 AM27 °FScattered showers. Mostly cloudy.18 mph74%30.01 "HgN/A
6:00 AM27 °FSnow flurries. Mostly cloudy.20 mph80%30.01 "HgN/A
5:00 AM27 °FSnow flurries. Mostly cloudy.21 mph74%30.04 "HgN/A
4:00 AM27 °FPassing clouds.22 mph69%30.04 "HgN/A
3:00 AM27 °FSnow flurries. Mostly cloudy.25 mph69%30.04 "HgN/A
2:00 AM27 °FMostly cloudy.23 mph69%30.07 "HgN/A
1:00 AM27 °FPassing clouds.21 mph64%30.09 "HgN/A
12:00 AM27 °FScattered showers. Partly cloudy.20 mph64%30.09 "HgN/A
11:00 PM
Sun, Apr 26
27 °FScattered showers. Passing clouds.20 mph69%30.12 "HgN/A
10:00 PM27 °FScattered showers. Passing clouds.21 mph69%30.15 "HgN/A
9:00 PM28 °FBroken clouds.17 mph64%30.15 "HgN/A
8:00 PM28 °FScattered showers. Partly sunny.23 mph59%30.18 "HgN/A
7:00 PM28 °FBroken clouds.20 mph59%30.18 "HgN/A
6:00 PM28 °FBroken clouds.25 mph59%30.21 "HgN/A
5:00 PM28 °FLight snow. Broken clouds.25 mph64%30.21 "HgN/A
4:00 PM28 °FLight snow. Broken clouds.30 mph69%30.21 "HgN/A
3:00 PM28 °FLight snow. Broken clouds.30 mph64%30.21 "HgN/A
Weather by CustomWeather, © 2015

See weather overviewHow to use our weather pages